Location: Kosice
(0.0000°N, 21.2500°E)
Time: 09:18:08
(UTC+02:00)

Cosmos 1408 - Visible Passes

Search period start: 09 May 2021 00:00
Search period end: 19 May 2021 00:00
Orbit: 467 x 493 km, 82.6° (Epoch: 08 May)

Date Brightness Start Highest point End Pass type
(mag) Time Alt. Az. Time Alt. Az. Time Alt. Az.
10 May 4.2 05:47:52 10° SSE 05:51:13 37° E 05:54:31 10° NNE visible
11 May 5.5 05:22:29 10° SE 05:25:02 18° E 05:27:33 10° NE visible
13 May 3.0 06:04:01 10° SSW 06:07:22 38° W 06:10:40 10° NNW visible
14 May 2.4 05:37:36 10° S 05:41:11 86° W 05:44:43 10° N visible
15 May 3.7 05:11:36 10° SSE 05:15:00 42° E 05:18:22 10° NNE visible
16 May 5.1 04:46:06 10° SE 04:48:48 20° E 04:51:31 10° NE visible
17 May 5.8 04:22:08 10° ESE 04:22:37 10° E 04:23:06 10° E visible
17 May 4.1 05:54:57 10° SW 05:57:17 17° W 05:59:36 10° NW visible
18 May 3.2 05:29:58 26° SW 05:31:07 33° W 05:34:19 10° NNW visible
